TimeEDT,TemperatureF,Dew PointF,Humidity,Sea Level PressureIn,VisibilityMPH,Wind Direction,Wind SpeedMPH,Gust SpeedMPH,PrecipitationIn,Events,Conditions,WindDirDegrees,DateUTC
12:01 AM,71.6,69.8,94,30.06,3.0,South,12.7,-,0.02,Rain-Thunderstorm,Light Thunderstorms and Rain,170,2013-05-21 04:01:00
12:08 AM,71.6,69.8,94,30.05,4.0,South,6.9,-,0.03,Rain-Thunderstorm,Thunderstorms and Rain,180,2013-05-21 04:08:00
12:53 AM,71.1,66.9,87,30.03,9.0,ENE,10.4,-,0.06,Rain-Thunderstorm,Light Thunderstorms and Rain,60,2013-05-21 04:53:00
1:53 AM,72.5,68.4,87,30.00,10.0,ESE,20.7,25.3,0.00,Thunderstorm,Thunderstorm,120,2013-05-21 05:53:00
2:53 AM,72.0,68.0,87,29.97,10.0,ESE,13.8,-,N/A,,Mostly Cloudy,120,2013-05-21 06:53:00
3:53 AM,73.9,68.0,82,29.96,10.0,ESE,12.7,19.6,N/A,,Scattered Clouds,120,2013-05-21 07:53:00
4:53 AM,73.0,69.1,87,29.97,10.0,SSE,4.6,-,N/A,,Scattered Clouds,150,2013-05-21 08:53:00
5:53 AM,70.0,69.1,97,29.97,10.0,Calm,Calm,-,N/A,,Mostly Cloudy,0,2013-05-21 09:53:00
6:53 AM,69.1,68.0,96,29.98,10.0,NNW,3.5,-,N/A,,Mostly Cloudy,340,2013-05-21 10:53:00
7:23 AM,71.6,69.8,94,30.00,8.0,SSE,9.2,-,0.00,Rain,Light Rain,150,2013-05-21 11:23:00
7:25 AM,71.6,69.8,94,30.01,1.0,SE,9.2,-,0.00,Rain,Heavy Rain,130,2013-05-21 11:25:00
7:35 AM,71.6,69.8,94,30.01,0.2,East,16.1,-,0.24,Fog-Rain,Heavy Rain,100,2013-05-21 11:35:00
7:38 AM,71.6,69.8,94,30.01,0.2,East,16.1,-,0.27,Fog-Rain,Heavy Rain,90,2013-05-21 11:38:00
7:51 AM,71.6,69.8,94,30.01,1.0,East,15.0,25.3,0.83,Rain,Heavy Rain,90,2013-05-21 11:51:00
7:53 AM,71.1,69.1,93,30.01,1.0,East,13.8,25.3,0.85,Rain,Heavy Rain,80,2013-05-21 11:53:00
7:55 AM,71.6,69.8,94,30.01,3.0,East,12.7,25.3,0.01,Rain,Heavy Rain,100,2013-05-21 11:55:00
8:12 AM,71.6,69.8,94,30.02,10.0,East,8.1,-,0.07,,Mostly Cloudy,90,2013-05-21 12:12:00
8:53 AM,72.0,69.1,91,30.03,10.0,ESE,12.7,-,0.07,,Mostly Cloudy,110,2013-05-21 12:53:00
9:53 AM,73.9,69.1,85,30.03,10.0,East,9.2,-,0.00,Rain,Light Rain,100,2013-05-21 13:53:00
10:32 AM,71.6,69.8,94,30.04,10.0,ESE,9.2,-,0.00,Rain-Thunderstorm,Light Thunderstorms and Rain,120,2013-05-21 14:32:00
10:50 AM,75.2,69.8,83,30.03,10.0,East,11.5,-,0.00,Rain,Light Rain,100,2013-05-21 14:50:00
10:53 AM,75.0,69.1,82,30.04,10.0,ESE,11.5,-,0.00,Rain,Light Rain,120,2013-05-21 14:53:00
11:53 AM,77.0,69.1,76,30.03,10.0,SE,9.2,-,0.00,,Mostly Cloudy,140,2013-05-21 15:53:00
12:53 PM,80.1,70.0,71,30.01,10.0,ESE,12.7,-,N/A,,Mostly Cloudy,120,2013-05-21 16:53:00
1:53 PM,79.0,70.0,74,29.99,10.0,ESE,13.8,-,N/A,,Mostly Cloudy,120,2013-05-21 17:53:00
2:53 PM,80.1,70.0,71,29.97,10.0,ESE,13.8,-,N/A,,Mostly Cloudy,120,2013-05-21 18:53:00
3:53 PM,81.0,71.1,72,29.96,10.0,ESE,15.0,24.2,N/A,,Scattered Clouds,110,2013-05-21 19:53:00
4:53 PM,79.0,69.1,72,29.95,10.0,SE,13.8,-,N/A,,Scattered Clouds,130,2013-05-21 20:53:00
5:53 PM,78.1,69.1,74,29.95,10.0,ESE,17.3,-,N/A,,Mostly Cloudy,110,2013-05-21 21:53:00
6:53 PM,77.0,70.0,79,29.96,10.0,SE,12.7,-,N/A,,Mostly Cloudy,130,2013-05-21 22:53:00
7:53 PM,75.9,70.0,82,29.99,10.0,ESE,13.8,-,N/A,,Overcast,120,2013-05-21 23:53:00
8:53 PM,75.9,70.0,82,29.98,10.0,ESE,11.5,-,0.00,Rain,Light Rain,120,2013-05-22 00:53:00
9:53 PM,75.9,70.0,82,29.96,10.0,SE,9.2,-,0.00,,Mostly Cloudy,130,2013-05-22 01:53:00
10:53 PM,75.0,70.0,84,29.97,10.0,SE,8.1,-,N/A,,Scattered Clouds,130,2013-05-22 02:53:00
11:53 PM,75.9,69.1,79,29.97,10.0,SE,12.7,-,N/A,,Mostly Cloudy,140,2013-05-22 03:53:00